San Antonio, Texas, United States (78266)
Lat: 29.42N, Lon: 98.49W
Wx Zone: TXZ206
Local Info
Past Weather Observations for Today

NOTE: This archive is for the closest National Weather Service station to San Antonio. Information may differ from the station used for current weather conditions.

Click here for Long-term Archive

Time Weather Temperature Dewpoint Humidity Pressure Winds Precip Visibility
18:58
Clear
81°F / 27°C 72°F / 22°C 74% 30.01 in
(1016 mb)
SSE 10.4 mph
(SSE 17 kph)
- 10SM
17:58
Clear
84°F / 29°C 72°F / 22°C 66% 29.98 in
(1015 mb)
SSE 11.5 mph
(SSE 19 kph)
- 10SM
16:58
Clear
88°F / 31°C 70°F / 21°C 55% 29.98 in
(1015 mb)
SSE 16.1 mph
(SSE 26 kph)
- 10SM
15:58
Partly Cloudy
88°F / 31°C 72°F / 22°C 59% 30.01 in
(1016 mb)
S 15 mph
(S 24 kph)
- 10SM
14:58
Partly Cloudy
90°F / 32°C 72°F / 22°C 55% 30.01 in
(1016 mb)
SSE 13.8 mph
(SSE 22 kph)
- 10SM
13:58
Partly Cloudy
90°F / 32°C 72°F / 22°C 55% 30.04 in
(1017 mb)
SSE 16.1 mph
(SSE 26 kph)
- 10SM
12:58
Partly Cloudy
88°F / 31°C 72°F / 22°C 59% 30.04 in
(1017 mb)
SSE 17.3 mph
(SSE 28 kph)
- 10SM
11:58
Partly Cloudy
86°F / 30°C 72°F / 22°C 62% 30.06 in
(1018 mb)
SSE 18.4 mph
(SSE 30 kph)
- 10SM
11:36
Partly Cloudy
86°F / 30°C 72°F / 22°C 62% 30.06 in
(1018 mb)
S 15 mph
(S 24 kph)
- 10SM
10:58
Mostly Cloudy
84°F / 29°C 72°F / 22°C 66% 30.09 in
(1019 mb)
SE 12.7 mph
(SE 20 kph)
- 10SM
10:48
Mostly Cloudy
84°F / 29°C 72°F / 22°C 66% 30.06 in
(1018 mb)
SSE 15 mph
(SSE 24 kph)
- 10SM
10:21
Mostly Cloudy
82°F / 28°C 73°F / 23°C 74% 30.09 in
(1019 mb)
SE 15 mph
(SE 24 kph)
- 10SM
09:58
Mostly Cloudy
81°F / 27°C 75°F / 24°C 84% 30.09 in
(1019 mb)
SE 10.4 mph
(SE 17 kph)
- 10SM
09:21
Mostly Cloudy
79°F / 26°C 75°F / 24°C 89% 30.09 in
(1019 mb)
SE 10.4 mph
(SE 17 kph)
- 10SM
08:58
Overcast
79°F / 26°C 75°F / 24°C 89% 30.06 in
(1018 mb)
SE 11.5 mph
(SE 19 kph)
- 10SM
08:21
Mostly Cloudy
Fog And Mist
77°F / 25°C 75°F / 24°C 94% 30.06 in
(1018 mb)
SE 11.5 mph
(SE 19 kph)
- 5SM
07:57
Overcast
Fog And Mist
77°F / 25°C 77°F / 25°C 100% 30.04 in
(1017 mb)
SE 10.4 mph
(SE 17 kph)
- 4SM
07:12
Overcast
Fog And Mist
77°F / 25°C 77°F / 25°C 100% 30.04 in
(1017 mb)
SE 8.1 mph
(SE 13 kph)
- 5SM
07:00
Overcast
Fog And Mist
77°F / 25°C 77°F / 25°C 100% 30.04 in
(1017 mb)
ESE 5.8 mph
(ESE 9 kph)
- 4SM
06:58
Overcast
Fog And Mist
77°F / 25°C 77°F / 25°C 100% 30.04 in
(1017 mb)
E 6.9 mph
(E 11 kph)
0.00 in
(0.00 mm)
5SM
06:49
Overcast
Fog And Mist
77°F / 25°C 77°F / 25°C 100% 30.04 in
(1017 mb)
ESE 6.9 mph
(ESE 11 kph)
- 5SM
06:24
Mostly Cloudy
Drizzle
75°F / 24°C 75°F / 24°C 100% 30.04 in
(1017 mb)
SE 3.5 mph
(SE 6 kph)
- 5SM
05:58
Mostly Cloudy
Fog And Mist
75°F / 24°C 75°F / 24°C 100% 30.01 in
(1016 mb)
SE 4.6 mph
(SE 7 kph)
- 4SM
05:28
Partly Cloudy
Fog And Mist
75°F / 24°C 75°F / 24°C 100% 30.01 in
(1016 mb)
E 3.5 mph
(E 6 kph)
- 4SM
05:08
Partly Cloudy
75°F / 24°C 75°F / 24°C 100% 30.01 in
(1016 mb)
E 4.6 mph
(E 7 kph)
- 7SM
05:03
Partly Cloudy
75°F / 24°C 75°F / 24°C 100% 30.01 in
(1016 mb)
E 5.8 mph
(E 9 kph)
- 7SM
04:58
Mostly Cloudy
75°F / 24°C 75°F / 24°C 100% 30.01 in
(1016 mb)
E 4.6 mph
(E 7 kph)
- 7SM
04:53
Mostly Cloudy
75°F / 24°C 75°F / 24°C 100% 30.01 in
(1016 mb)
E 4.6 mph
(E 7 kph)
- 7SM
04:48
Mostly Cloudy
75°F / 24°C 75°F / 24°C 100% 30.01 in
(1016 mb)
E 4.6 mph
(E 7 kph)
- 7SM
04:38
Mostly Cloudy
75°F / 24°C 75°F / 24°C 100% 30.01 in
(1016 mb)
ESE 4.6 mph
(ESE 7 kph)
- 7SM
04:08
Mostly Cloudy
75°F / 24°C 75°F / 24°C 100% 30.01 in
(1016 mb)
SE 2.3 mph
(SE 4 kph)
- 8SM
04:03
Mostly Cloudy
75°F / 24°C 75°F / 24°C 100% 30.01 in
(1016 mb)
SE 3.5 mph
(SE 6 kph)
- 8SM
03:58
Mostly Cloudy
75°F / 24°C 75°F / 24°C 100% 30.01 in
(1016 mb)
ESE 3.5 mph
(ESE 6 kph)
- 8SM
03:53
Mostly Cloudy
75°F / 24°C 75°F / 24°C 100% 30.01 in
(1016 mb)
SE 3.5 mph
(SE 6 kph)
- 8SM
03:43
Mostly Cloudy
75°F / 24°C 75°F / 24°C 100% 30.01 in
(1016 mb)
SE 3.5 mph
(SE 6 kph)
- 8SM
03:18
Partly Cloudy
75°F / 24°C 75°F / 24°C 100% 30.01 in
(1016 mb)
E 5.8 mph
(E 9 kph)
- 7SM
03:03
Mostly Cloudy
75°F / 24°C 75°F / 24°C 100% 30.01 in
(1016 mb)
SE 4.6 mph
(SE 7 kph)
- 8SM
02:58
Mostly Cloudy
75°F / 24°C 75°F / 24°C 100% 30.01 in
(1016 mb)
SE 4.6 mph
(SE 7 kph)
- 8SM
02:46
Mostly Cloudy
75°F / 24°C 75°F / 24°C 100% 30.01 in
(1016 mb)
SE 4.6 mph
(SE 7 kph)
- 8SM
02:36
Mostly Cloudy
75°F / 24°C 75°F / 24°C 100% 30.01 in
(1016 mb)
SE 4.6 mph
(SE 7 kph)
- 8SM
02:31
Partly Cloudy
75°F / 24°C 75°F / 24°C 100% 30.01 in
(1016 mb)
SSE 5.8 mph
(SSE 9 kph)
- 9SM
02:03
Partly Cloudy
75°F / 24°C 75°F / 24°C 100% 29.98 in
(1015 mb)
SE 8.1 mph
(SE 13 kph)
- 10SM
01:58
Partly Cloudy
75°F / 24°C 75°F / 24°C 100% 29.98 in
(1015 mb)
SE 8.1 mph
(SE 13 kph)
- 10SM
01:38
Partly Cloudy
75°F / 24°C 75°F / 24°C 100% 29.98 in
(1015 mb)
ESE 6.9 mph
(ESE 11 kph)
- 9SM
01:33
Mostly Cloudy
75°F / 24°C 75°F / 24°C 100% 30.01 in
(1016 mb)
ESE 5.8 mph
(ESE 9 kph)
- 10SM
01:23
Partly Cloudy
75°F / 24°C 75°F / 24°C 100% 30.01 in
(1016 mb)
E 5.8 mph
(E 9 kph)
- 10SM
00:58
Mostly Cloudy
77°F / 25°C 75°F / 24°C 94% 30.01 in
(1016 mb)
Variable 2.3 mph
(Variable 4 kph)
- 10SM
00:43
Mostly Cloudy
77°F / 25°C 75°F / 24°C 94% 30.01 in
(1016 mb)
ESE 4.6 mph
(ESE 7 kph)
- 10SM
00:38
Mostly Cloudy
77°F / 25°C 75°F / 24°C 94% 30.01 in
(1016 mb)
ESE 4.6 mph
(ESE 7 kph)
- 9SM
00:33
Mostly Cloudy
77°F / 25°C 75°F / 24°C 94% 30.01 in
(1016 mb)
SE 4.6 mph
(SE 7 kph)
- 9SM
00:28
Mostly Cloudy
77°F / 25°C 75°F / 24°C 94% 30.04 in
(1017 mb)
SE 4.6 mph
(SE 7 kph)
- 9SM
00:23
Mostly Cloudy
77°F / 25°C 75°F / 24°C 94% 30.04 in
(1017 mb)
ESE 4.6 mph
(ESE 7 kph)
- 10SM
00:08
Overcast
77°F / 25°C 75°F / 24°C 94% 30.04 in
(1017 mb)
SE 4.6 mph
(SE 7 kph)
- 9SM
00:03
Overcast
77°F / 25°C 75°F / 24°C 94% 30.04 in
(1017 mb)
SE 4.6 mph
(SE 7 kph)
- 9SM
Time Weather Temperature Dewpoint Humidity Pressure Winds Precip Visibility


Weather for websites

WeatherForYou.com, LLC is not responsible for any damages or problems caused by this service. Current weather conditions are obtained from the closest station including government and personal stations which may have varying degrees of accuracy. Weather forecasts are derived from the NOAA NDFD. Like all things, this site belongs to Jesus Christ... He just trusts us to maintain it. If you have any questions or comments email webmaster@weatherforyou.com

Copyright © 2015, WeatherForYou.com LLC. All rights reserved.